Track AEROCUBE 7 now! 10-day predictions AEROCUBE 7 is classified as:
1 40966U 15058C 25175.69057806 .00004131 00000-0 33755-3 0 9990 2 40966 64.7650 281.4350 0154271 195.6177 164.0150 14.91946734312555